Find Starlink 5999

NORAD ID: 56909 Int'l Des: 2023-083 Owner: SPXS Country: US Constellation: starlink operational
LEOCIRCULAR

Current View

Loading 3D Globe...

About Starlink 5999

Description loading...

Upcoming Passes

Passes for default location (London). Set your location on the main map for personalized predictions.

Altitude History

Loading altitude history...

Two-Line Element Set

1 56909U 23083AK 26149.90182939 .00001352 00000-0 58656-4 0 9993
2 56909 43.0070 332.4579 0002051 272.7697 87.2920 15.27576353164324
Epoch: May 29, 2026 • Age: 16 hours

Current Status

Altitude 487.1 km
Velocity 7.63 km/s
Sub-Earth Point 41.18°N, 55.41°W
Launch Date Jun 12, 2023
Age 2.9 years
Type internet

Technical Details

Classification Payload
Mass 305.00 kg
Dry Mass 290.00 kg
Total Mass 305.00 kg
Length 0.20 m
Diameter 2.80 m
Span 9.00 m
Shape Box + pan
Manufacturer SPXS
Bus Type Starlink
Phase Status In Orbit
Owner/State SPXS/US

Most Searched